Theta_e
342 343 349 349 351 354 355 355 355 354 354 354 353 354 353 352 351 350 349 348 348 349 349 349 349 350 350 351 352 350 351 351 352 351 351 350 350 349 349 348 348 349 349 349 349 349 348 349 350 351 351 350 351 351 350 351 350 350 349 347 347 347 348 349 349 348 348 348 351 351 351 351 351 351 353 352 353 352 351 351 351 350 352 350 350
339 346 349 352 351 354 355 355 355 355 354 354 354 353 353 351 350 349 348 348 348 348 349 349 349 349 350 349 349 349 350 350 351 351 351 351 350 350 350 350 350 350 350 349 348 348 347 348 349 349 349 348 348 348 349 349 349 349 348 346 346 346 346 347 347 347 347 347 348 349 349 350 350 351 352 352 353 352 350 350 350 352 352 351 350
342 346 349 352 349 352 355 355 355 355 354 353 353 353 352 351 350 349 348 348 348 348 348 348 348 348 348 348 348 349 348 349 350 350 351 351 350 350 349 348 348 347 347 348 347 346 345 346 346 346 345 345 345 345 346 346 346 346 347 346 345 345 344 344 346 346 346 346 346 347 346 348 349 350 351 351 352 351 349 349 349 350 350 350 349
343 345 349 349 346 350 354 355 355 355 354 353 353 353 352 350 350 349 348 348 347 348 348 348 348 348 347 347 347 347 348 349 349 349 350 350 350 349 348 348 347 347 347 347 347 346 345 345 345 344 343 341 341 341 341 342 343 344 344 344 344 343 343 343 345 347 346 346 345 345 347 348 347 348 350 351 351 351 349 348 348 348 349 349 349
343 344 348 351 353 349 352 354 355 355 354 353 353 353 352 350 350 349 348 347 347 349 348 348 347 347 347 347 348 348 348 349 348 349 349 349 350 349 348 348 347 347 347 346 345 346 345 345 344 344 342 342 340 339 338 339 340 341 342 342 343 342 343 342 344 346 345 344 345 344 346 347 348 348 348 349 350 349 348 348 348 348 347 347 347
342 345 348 350 352 354 349 354 355 354 354 353 353 352 352 350 349 348 347 347 348 348 348 347 347 346 347 348 347 347 348 348 348 348 348 349 349 349 348 348 347 347 346 347 346 346 344 343 344 344 342 340 339 339 338 338 337 338 340 340 341 341 343 343 342 344 344 342 343 345 346 348 347 346 347 348 348 348 347 347 348 348 347 347 346
342 345 348 350 351 351 345 353 355 354 354 353 353 352 351 350 349 348 348 347 348 348 348 347 346 347 347 348 348 347 347 348 347 348 348 348 348 348 348 348 347 346 347 346 346 346 345 344 342 341 340 338 337 336 336 335 336 336 337 338 339 341 343 343 341 342 342 345 343 344 344 346 348 348 346 347 347 347 346 347 346 346 346 345 346
343 346 349 349 351 348 346 353 355 354 353 353 353 352 351 350 349 348 347 348 348 347 348 346 346 346 347 347 347 347 346 347 347 347 347 347 348 348 348 347 347 346 346 345 345 345 344 343 342 340 339 337 336 335 333 332 332 334 335 337 338 340 342 342 341 341 340 342 344 344 344 346 347 348 346 346 345 345 345 345 344 344 344 344 343
341 345 348 348 351 345 345 351 354 354 354 353 353 352 351 350 350 349 347 348 348 347 347 346 346 345 347 347 347 346 347 347 346 347 347 347 348 348 347 346 346 346 345 345 345 344 343 342 341 340 338 336 334 333 332 330 330 331 333 335 338 341 342 339 338 337 343 344 344 343 344 344 346 346 345 346 346 345 344 343 343 343 343 342 342
341 345 349 347 351 342 344 349 355 354 353 353 352 351 351 350 350 348 348 348 348 347 347 346 346 346 347 347 347 348 348 347 347 347 347 347 347 347 347 346 345 345 344 345 343 342 341 340 340 339 337 335 332 330 329 329 329 330 331 334 337 340 339 338 336 340 342 343 344 344 347 349 344 345 345 345 345 344 342 342 342 342 342 341 341
342 345 348 348 350 341 346 349 352 353 353 353 352 351 351 350 349 348 348 348 347 347 347 346 347 347 347 347 348 348 346 347 347 346 346 347 347 347 346 345 344 343 344 343 342 341 341 341 340 338 336 333 330 327 327 328 329 329 332 335 337 338 338 337 338 342 343 343 342 344 344 344 343 345 345 344 344 343 341 341 341 341 341 341 341
341 345 348 348 345 340 344 348 351 352 352 352 352 351 351 350 350 348 348 348 347 347 347 347 347 347 347 347 348 347 347 347 347 347 346 346 346 346 345 345 343 343 342 342 341 341 343 341 340 337 334 331 329 327 326 327 328 329 332 335 335 336 335 335 340 341 343 342 342 343 343 340 341 343 343 343 343 342 340 340 339 338 338 339 340
341 342 345 348 349 338 342 346 348 351 352 352 352 351 351 350 349 349 348 348 347 348 347 348 347 347 346 347 347 347 347 347 347 347 346 345 345 343 343 344 343 342 341 341 341 340 343 341 339 336 334 330 328 326 325 325 327 329 332 333 333 335 335 335 338 340 341 342 341 343 343 343 343 342 343 342 342 341 339 338 337 336 336 335 336
340 341 343 345 346 342 338 343 345 350 351 352 352 350 351 350 349 348 348 348 348 347 347 347 347 347 347 346 346 347 347 346 347 346 346 345 345 344 343 344 343 342 342 341 340 341 341 340 337 335 333 331 328 326 325 325 325 329 332 333 333 333 332 333 336 339 340 340 341 341 340 341 343 341 341 341 340 339 338 337 336 335 334 334 334
337 340 341 343 344 347 337 338 342 344 347 350 350 350 350 349 349 349 349 349 349 349 348 348 348 347 347 346 347 347 346 346 346 346 345 345 344 344 343 343 342 342 341 340 341 340 339 337 335 333 332 330 327 325 324 324 325 329 331 331 330 329 328 334 336 337 339 338 339 340 340 342 341 340 339 339 339 338 336 336 334 334 333 332 332
336 338 340 340 343 345 348 339 336 340 342 345 346 347 349 348 349 348 348 348 348 348 349 348 348 348 348 347 346 345 345 344 345 345 344 343 343 342 341 342 342 340 340 340 339 338 337 335 333 331 330 329 327 325 324 324 325 328 329 329 327 327 326 328 334 336 335 335 338 340 339 341 339 338 337 336 335 335 335 333 333 334 332 332 331
335 337 338 339 341 342 344 347 344 333 337 339 340 342 345 346 347 348 347 347 347 348 348 348 348 347 347 348 347 346 344 345 345 345 344 343 342 341 340 341 339 339 339 339 337 336 335 333 332 330 329 327 325 324 323 323 325 327 328 326 325 324 324 323 334 334 333 336 337 338 338 338 338 337 337 335 335 334 332 333 333 332 332 330 330
336 336 337 339 340 341 342 345 347 348 349 342 335 337 341 344 345 345 344 344 345 346 346 345 346 345 344 342 341 341 342 343 343 342 343 342 341 340 339 339 339 338 339 337 336 335 334 332 331 329 328 326 323 322 323 321 323 326 326 324 323 321 322 320 333 332 333 334 335 337 336 338 335 336 336 336 334 333 333 333 331 330 329 328 330
334 335 336 337 337 339 340 343 345 347 348 348 350 347 335 338 341 341 341 342 343 342 341 342 340 341 340 337 336 335 333 336 337 338 340 338 337 334 337 339 338 337 337 337 336 335 333 331 330 328 326 324 321 320 321 322 323 323 323 322 320 319 318 325 333 331 330 332 332 334 335 336 333 335 335 334 334 334 334 332 330 328 326 329 329
330 332 334 336 337 337 339 341 342 344 346 346 348 349 336 333 337 339 338 339 338 338 338 338 334 333 332 330 329 336 332 336 328 338 332 334 333 335 334 338 337 336 336 336 335 334 332 331 330 328 325 322 319 316 316 317 318 320 321 320 318 315 329 330 332 331 330 331 332 332 333 335 333 335 334 332 331 331 331 330 327 328 328 328 328
322 325 329 332 334 336 337 339 341 343 344 345 346 347 347 331 335 332 332 334 335 334 335 331 324 322 325 323 325 348 347 345 339 343 327 341 324 326 332 335 337 337 337 336 335 333 332 331 329 326 322 318 314 312 311 312 313 315 317 318 314 325 326 328 329 329 330 330 331 332 330 333 332 334 333 332 329 329 329 327 327 326 328 326 326
317 317 320 320 325 333 336 337 339 340 343 344 345 346 347 339 348 349 347 341 334 330 340 347 334 347 326 336 346 346 345 346 345 334 341 337 332 324 326 331 335 335 334 336 334 333 332 331 328 325 321 316 312 317 312 311 310 312 313 313 322 323 325 325 326 327 328 330 329 326 328 333 331 332 331 331 330 330 328 325 327 326 326 326 325
314 315 316 316 318 321 331 335 337 339 341 343 344 345 346 346 347 348 348 338 342 346 347 346 347 347 345 345 342 345 345 344 344 340 341 328 335 323 325 329 331 330 331 333 334 333 331 330 327 322 318 315 321 316 311 310 310 308 309 315 318 321 323 324 325 325 326 325 328 321 325 330 332 330 331 329 328 328 325 326 327 326 326 325 324
312 314 315 317 317 318 324 333 336 338 339 340 342 343 344 344 345 346 348 346 347 344 343 344 344 346 346 344 343 344 343 343 329 323 328 337 333 321 323 324 325 324 324 330 330 331 331 327 323 320 320 321 322 316 311 308 307 308 309 309 313 316 319 320 322 322 324 325 325 317 322 327 331 330 329 329 328 327 325 327 325 326 325 325 325
312 313 317 317 317 317 317 325 334 337 339 339 340 342 344 344 344 345 344 344 344 346 345 345 345 346 346 345 345 344 343 342 343 341 342 340 338 336 335 335 336 338 325 337 335 333 331 330 326 324 326 323 320 316 314 311 308 306 306 306 307 310 314 316 317 318 320 321 320 314 318 322 327 331 329 329 327 326 325 327 325 325 325 324 325
314 315 315 317 318 318 317 318 330 335 337 339 340 341 342 342 343 342 344 344 345 343 343 342 343 344 344 344 344 344 344 342 342 342 342 340 339 338 338 338 339 337 335 335 334 334 333 330 328 326 322 319 317 315 311 309 309 305 304 306 306 306 308 309 312 314 316 317 317 312 315 319 323 327 330 329 327 326 326 327 325 326 327 325 324
312 313 315 315 316 318 319 317 324 333 335 338 339 340 342 342 342 345 342 340 341 342 342 340 341 343 343 343 342 342 342 341 340 341 341 341 339 338 338 338 337 337 336 335 334 332 328 325 325 323 321 319 316 314 312 309 308 306 306 306 306 306 306 306 307 308 311 312 313 310 312 316 319 323 327 330 329 330 328 328 326 327 327 328 325
311 313 314 315 316 317 318 317 324 331 333 336 337 339 340 342 342 341 341 337 339 339 341 342 338 338 339 340 340 341 341 340 339 339 339 338 338 338 337 334 334 335 335 335 331 330 326 325 325 323 321 319 318 316 316 315 312 310 309 308 308 307 306 306 306 307 307 309 310 311 309 312 315 318 323 327 329 330 331 332 333 329 325 329 327
308 310 311 314 317 318 320 320 325 329 333 335 335 337 339 340 341 341 342 339 342 343 340 340 339 337 337 335 335 337 339 338 338 338 337 337 338 336 334 333 333 334 333 332 331 328 327 326 325 324 322 321 319 318 317 316 316 314 312 312 311 310 309 309 308 307 308 307 308 308 308 310 313 315 318 322 325 327 329 331 333 334 334 331 329
306 308 309 312 316 319 321 321 324 327 333 333 335 336 338 337 338 338 342 340 341 337 340 339 338 336 333 333 332 333 336 337 336 337 336 335 335 334 333 332 332 331 331 330 329 329 327 326 324 323 322 321 320 317 318 318 316 315 314 314 313 313 313 311 309 308 308 308 308 308 309 308 310 313 314 316 320 324 326 328 330 332 334 333 331
306 307 308 311 315 318 322 323 326 329 334 331 335 334 338 335 340 340 335 330 329 329 329 328 328 329 329 328 329 329 330 331 330 330 331 332 332 332 330 330 331 330 331 330 329 328 326 326 325 322 322 321 319 317 318 319 318 316 315 315 315 315 314 313 311 309 307 307 308 308 309 307 307 309 311 313 315 318 321 324 326 329 332 333 334
303 304 306 310 314 317 320 325 327 329 332 334 335 335 329 329 326 327 326 325 324 324 324 324 323 325 325 326 325 324 324 326 327 326 325 323 322 323 325 325 325 326 326 324 324 324 323 321 320 319 320 321 319 318 318 318 319 317 316 315 315 314 314 312 311 309 308 307 308 308 308 309 309 309 310 310 312 313 316 319 322 325 327 330 332
303 303 306 311 312 315 319 322 325 327 328 327 324 323 322 322 321 321 321 321 321 320 318 318 319 320 321 322 322 322 322 322 323 323 322 322 321 321 319 319 319 320 319 320 320 320 320 320 319 319 320 320 320 318 318 318 317 316 316 315 314 314 312 311 310 309 308 307 307 307 308 308 308 309 308 309 310 311 313 315 318 321 324 326 329
301 304 306 308 311 316 319 320 321 320 320 322 321 319 318 318 318 318 318 318 317 316 316 316 316 317 318 318 319 319 321 321 322 321 321 320 319 317 317 316 316 317 319 322 322 322 322 319 317 320 316 319 319 318 318 318 317 316 316 314 313 312 311 310 309 308 307 306 306 306 306 306 306 308 310 308 308 310 311 313 314 317 319 323 324
301 302 303 306 309 313 318 318 319 319 318 316 316 315 315 314 314 313 313 313 312 312 313 314 314 314 314 315 316 316 318 319 319 319 319 319 318 316 315 314 316 317 318 319 319 319 318 317 317 318 319 319 319 317 318 317 316 316 315 313 313 311 310 309 309 308 307 307 306 306 306 305 306 307 308 308 307 308 309 312 314 314 318 319 320
299 300 303 305 306 308 315 317 317 315 314 313 312 311 309 308 307 307 308 308 308 308 308 308 308 308 309 310 312 313 314 314 316 317 316 316 316 314 314 314 314 315 315 316 317 317 316 316 317 318 319 319 319 318 317 315 315 314 314 312 311 310 309 309 308 308 307 306 305 306 305 305 306 305 304 305 307 309 306 308 311 314 315 315 317
299 300 301 303 304 305 308 312 312 312 310 309 308 307 306 304 303 303 303 304 303 303 303 304 304 304 303 304 307 309 310 310 313 314 313 314 314 313 314 314 313 313 313 313 312 313 315 315 313 313 315 316 316 315 315 313 312 311 311 311 311 309 309 309 308 307 307 305 305 305 305 305 305 303 305 306 306 306 308 305 307 308 309 310 313
299 299 300 302 302 304 305 306 309 309 308 307 305 305 304 303 302 301 301 300 301 300 300 301 301 301 302 302 302 304 305 306 307 308 308 309 310 310 311 311 311 310 309 309 309 310 311 313 312 311 311 312 312 310 309 308 308 308 309 309 309 309 309 308 307 303 305 304 304 304 304 303 304 304 304 305 305 305 306 307 307 307 307 308 310
298 299 300 301 303 303 304 304 306 307 308 307 305 304 303 302 302 301 300 300 299 299 300 300 300 301 301 302 303 302 302 303 305 304 305 305 305 307 308 310 310 309 308 307 307 306 308 309 309 310 309 307 306 304 303 303 305 307 307 308 308 308 308 307 305 305 303 304 303 303 305 304 304 304 304 304 304 304 305 305 305 306 306 307 307
298 298 300 301 302 302 303 303 303 304 306 306 305 304 304 302 300 300 299 298 297 296 297 297 299 299 300 301 301 302 303 302 303 303 303 303 304 305 306 306 305 305 303 302 302 302 303 305 305 305 307 307 304 303 302 302 304 306 306 307 308 308 307 306 304 303 304 305 304 302 302 302 303 303 303 304 303 304 304 305 303 305 305 307 308
297 298 299 299 300 302 302 301 303 304 305 306 304 304 302 300 299 297 296 296 295 294 294 295 295 296 297 298 300 300 302 302 303 304 304 303 304 304 304 304 304 304 303 302 303 303 303 304 304 305 304 303 301 301 301 302 304 303 304 306 306 307 305 303 302 302 304 304 302 301 302 303 303 302 302 302 303 303 304 304 304 304 304 305 305
296 297 298 298 300 301 300 301 302 302 302 303 302 301 300 299 297 295 295 295 295 294 293 294 295 295 296 296 297 298 299 300 300 302 302 303 302 302 302 303 303 302 302 302 302 301 302 302 303 304 304 302 300 300 300 301 300 298 299 300 304 306 305 301 300 303 304 303 301 303 302 301 300 301 302 301 303 303 302 302 302 303 304 304 304
296 297 298 298 299 299 299 300 300 301 301 301 301 299 299 298 297 295 294 293 294 294 294 294 295 294 294 295 295 296 296 297 298 298 299 300 300 300 300 301 302 302 301 300 301 300 301 301 301 301 301 302 301 301 300 300 297 298 301 300 299 298 302 300 302 302 301 300 302 303 301 301 301 302 301 301 301 301 302 302 302 302 303 303 303
296 296 297 297 298 299 299 300 300 300 299 298 297 297 296 296 296 295 295 294 293 294 294 294 294 294 293 293 294 294 295 295 295 296 296 296 297 297 298 298 299 300 300 299 298 298 299 299 300 299 300 299 299 299 300 299 298 297 295 296 297 297 297 298 296 300 300 302 303 300 300 301 301 300 301 300 301 301 301 301 301 301 301 302 302
294 294 295 296 296 298 298 299 299 299 298 297 297 296 295 295 295 295 295 294 295 294 293 291 292 292 292 292 292 293 293 293 294 294 294 294 295 295 295 295 295 296 297 296 296 296 297 298 298 298 298 298 298 298 299 299 299 299 297 296 296 296 293 294 295 299 300 300 300 300 301 300 299 299 299 300 301 301 300 301 301 301 301 301 301
292 293 294 295 296 297 297 298 298 298 298 298 299 299 297 296 296 295 293 292 290 290 289 289 290 290 290 292 292 293 293 293 293 293 293 293 293 294 294 293 293 293 294 294 294 293 294 294 295 296 296 298 298 297 296 299 299 298 298 297 296 293 291 293 295 293 299 301 299 300 300 299 299 298 299 299 299 299 299 300 300 300 301 301 301
291 292 293 293 294 295 296 296 296 295 296 296 296 296 295 295 294 293 292 290 289 289 290 291 290 291 291 290 291 292 292 292 292 292 292 292 293 293 293 293 293 293 293 293 292 292 293 294 294 294 293 295 296 293 293 295 298 297 298 298 297 296 296 293 291 292 291 296 298 298 298 298 297 297 298 298 298 298 298 298 299 300 300 300 300
291 291 292 292 293 293 294 293 293 293 294 294 294 295 294 293 293 292 291 290 289 289 289 290 291 291 290 290 290 290 291 291 291 292 292 292 292 292 292 292 291 291 291 291 291 292 292 293 293 293 292 292 293 291 291 292 290 291 294 294 295 296 297 296 294 291 290 288 290 295 297 296 295 296 296 295 296 296 296 297 298 298 299 299 300
290 291 291 291 292 292 292 292 292 292 292 293 293 293 293 292 292 291 290 290 290 290 290 291 290 291 290 290 290 290 290 291 291 291 291 291 291 291 291 291 291 290 290 291 291 291 291 291 291 291 291 291 291 291 290 289 290 289 289 290 291 292 294 295 294 293 289 287 287 288 288 292 293 294 293 295 295 294 295 296 297 298 299 299 300
289 290 290 291 292 292 291 291 291 291 292 292 292 292 292 292 291 291 290 290 290 290 291 290 290 291 290 290 290 290 290 290 290 290 290 290 290 290 290 290 290 290 289 290 290 290 290 290 291 290 291 290 291 291 290 290 290 290 290 290 288 288 289 289 289 289 289 290 286 286 287 286 285 289 292 292 293 293 294 295 295 297 298 298 299
289 290 290 291 291 291 291 290 290 291 291 291 292 292 292 292 291 291 291 290 291 291 290 290 290 290 289 289 289 289 290 289 289 289 290 290 290 290 289 289 289 289 289 289 289 289 289 290 290 291 290 289 289 290 290 290 290 290 290 289 288 288 287 286 286 287 287 286 285 285 286 286 286 286 290 291 291 292 294 294 294 295 296 297 298
Wind_Speed
9 8 10 11 9 8 14 13 13 14 14 14 13 13 14 13 12 11 10 10 10 9 10 10 10 11 10 12 12 11 10 10 10 10 11 10 10 11 12 12 13 13 13 13 13 13 13 12 13 14 14 14 15 14 14 14 14 14 14 14 14 14 13 13 13 12 11 11 11 12 12 12 12 11 13 13 13 12 11 11 9 7 7 9 9
12 9 9 12 9 8 12 13 14 14 14 14 13 13 13 13 12 11 10 10 10 9 9 9 9 10 9 9 10 10 10 10 10 11 10 11 10 11 12 12 13 13 14 14 14 13 13 12 13 14 14 15 15 14 14 13 13 13 13 12 13 13 13 12 12 11 11 10 9 9 10 12 13 13 13 13 14 14 12 13 13 7 7 10 10
8 9 10 13 10 7 10 13 14 14 14 14 13 13 13 12 12 11 10 10 9 9 9 9 9 9 9 9 9 9 9 9 9 10 11 11 11 10 11 12 13 13 13 14 13 13 13 13 13 13 13 14 13 13 13 13 12 11 11 11 11 11 11 11 10 10 10 9 6 4 10 10 11 13 13 14 14 14 13 14 12 11 9 12 10
7 9 9 12 8 6 8 11 12 13 13 13 13 13 12 12 13 12 11 10 9 9 9 9 9 9 9 9 8 9 9 9 8 9 11 11 11 11 11 12 13 13 13 14 13 13 13 13 13 14 14 14 13 13 12 11 10 10 10 10 10 10 10 9 8 8 7 7 6 4 5 7 9 11 12 13 14 14 12 13 14 14 14 13 13
5 9 10 12 11 8 6 9 11 11 12 13 13 12 12 13 12 12 11 10 10 10 9 9 9 8 9 9 8 8 8 8 8 8 9 10 11 11 11 12 13 13 13 13 13 13 13 13 13 13 13 13 13 12 12 11 11 10 10 9 9 8 8 8 7 6 6 5 6 5 5 7 7 10 10 12 14 13 12 14 14 14 13 13 11
6 8 9 12 12 11 5 9 10 10 11 13 12 12 12 13 12 11 11 10 10 10 10 9 8 9 8 8 8 8 8 8 8 8 8 9 11 11 11 11 11 12 12 13 12 12 12 12 12 12 13 12 12 12 11 11 10 9 9 9 8 8 7 6 4 4 2 2 6 3 5 6 6 7 11 11 12 12 12 14 14 14 13 13 13
6 7 9 12 10 11 6 9 11 9 11 12 12 12 12 12 11 11 10 10 9 10 10 9 9 8 9 8 8 8 8 7 7 8 7 8 10 11 11 10 10 10 9 11 12 12 11 12 12 12 12 12 11 11 11 11 11 10 9 8 8 7 7 6 4 2 3 7 3 3 4 6 6 6 11 10 12 13 12 13 13 13 14 14 13
6 6 9 11 9 10 7 8 10 10 11 11 10 11 12 11 10 10 9 9 9 9 9 9 8 8 8 8 8 7 7 7 7 7 7 8 10 10 10 10 10 10 9 9 11 12 11 11 11 11 11 11 10 10 9 9 9 9 9 8 7 6 7 6 5 2 5 2 3 3 4 5 6 6 10 11 11 11 11 12 12 13 13 14 11
6 8 9 10 9 10 5 8 9 11 12 12 11 10 11 11 9 9 9 8 9 9 8 8 8 8 8 7 7 7 8 8 7 7 7 8 9 10 10 10 10 10 8 9 11 10 10 10 10 10 10 10 9 9 8 8 8 8 8 8 7 6 5 6 4 3 4 2 1 3 3 3 4 6 9 10 11 11 11 8 8 11 13 12 10
6 8 8 9 8 7 5 5 9 11 12 11 11 11 12 11 9 11 9 8 9 9 8 8 7 7 7 7 6 7 7 7 7 7 8 8 9 10 10 9 9 8 9 10 10 9 8 8 8 9 9 9 9 8 8 8 7 7 7 7 6 5 5 4 1 2 1 1 2 3 5 9 4 5 8 9 12 12 11 9 9 9 8 9 10
6 7 7 9 8 8 4 3 6 9 11 11 10 10 12 11 10 11 10 9 9 9 8 8 8 7 7 6 6 5 6 6 6 7 7 8 9 10 10 9 8 9 9 9 8 8 7 7 7 8 9 9 9 8 8 7 7 7 7 6 5 5 5 2 7 2 1 1 2 3 5 4 2 5 9 9 11 11 10 10 10 10 10 11 10
6 6 7 8 8 5 4 4 3 7 8 8 10 9 11 10 9 10 9 10 10 9 8 8 8 7 7 6 6 6 6 6 7 7 6 7 8 10 9 9 9 9 10 9 8 9 10 8 8 9 10 9 9 8 8 7 7 7 7 7 5 5 5 3 5 1 2 1 2 2 2 1 5 7 9 8 10 11 10 10 10 10 10 10 11
2 3 4 7 8 6 4 4 2 5 7 10 10 11 11 11 9 9 9 9 10 9 9 7 8 7 7 6 6 4 6 6 7 7 7 7 8 7 8 8 9 10 9 9 8 8 11 9 9 10 10 10 9 8 8 8 7 7 7 7 5 6 4 5 1 1 1 1 2 1 1 1 4 6 7 7 9 9 8 9 10 10 10 10 10
1 2 1 4 7 6 3 3 3 3 5 7 10 9 10 10 9 9 9 9 8 8 8 7 7 6 6 5 5 4 5 6 7 7 7 8 9 9 8 9 9 9 9 9 9 10 10 10 10 10 10 10 9 9 8 8 8 8 8 7 6 4 1 3 1 1 2 2 2 2 1 1 4 5 6 7 7 7 8 8 8 8 9 9 9
1 3 3 4 6 6 3 2 2 1 4 5 6 7 9 10 9 8 8 7 7 7 6 5 5 5 4 4 4 4 5 7 7 8 8 9 9 9 10 9 8 9 10 10 11 10 10 10 10 10 10 10 9 9 9 9 9 9 9 8 7 6 7 0 0 2 2 1 1 1 1 2 5 3 5 5 5 5 6 7 7 8 8 8 7
2 2 3 4 5 6 6 4 1 1 2 5 6 6 7 7 8 8 8 7 6 6 6 5 3 3 2 2 3 3 3 3 5 8 7 7 6 4 6 8 9 10 11 11 11 10 10 10 10 10 10 10 10 10 9 9 9 10 9 9 8 7 6 7 1 1 1 1 2 0 1 4 9 4 2 0 1 4 5 5 7 7 8 7 7
2 1 3 4 4 5 6 8 6 2 2 2 6 7 6 7 8 8 6 6 5 6 5 4 4 3 2 1 3 3 3 4 5 8 8 7 7 5 5 8 9 11 11 12 11 11 10 10 10 10 10 10 10 10 9 9 10 10 9 8 9 7 6 9 2 1 2 2 1 1 0 1 8 6 7 6 3 5 4 6 7 8 7 6 6
3 2 2 2 2 3 5 7 7 7 8 5 4 6 8 7 8 9 8 7 6 5 5 5 4 3 2 3 3 3 3 3 5 5 7 7 8 4 5 9 9 10 12 11 11 11 10 10 10 10 9 9 10 10 10 9 10 10 9 8 7 7 5 8 2 1 2 0 1 0 1 9 6 5 5 7 6 3 3 6 6 6 5 5 5
4 2 1 2 2 3 4 5 7 9 11 10 9 6 7 8 8 7 8 8 7 7 7 7 6 4 4 3 4 3 6 5 3 5 6 6 9 7 4 8 10 10 10 11 11 11 10 9 9 9 9 9 9 9 10 10 10 10 9 8 6 4 4 4 2 3 1 1 1 1 5 10 7 6 3 3 4 5 7 7 6 5 4 4 6
4 3 2 1 2 3 3 4 6 8 9 9 9 9 6 8 9 9 9 8 7 7 8 8 7 7 5 6 3 5 3 5 6 5 6 6 9 9 8 10 9 9 10 9 10 11 9 8 9 9 9 8 8 8 9 9 10 10 9 8 6 8 2 2 2 2 1 2 3 1 9 10 9 6 4 2 4 5 6 6 5 4 3 4 5
3 4 3 2 3 3 4 4 6 7 8 8 8 9 7 6 7 8 9 9 7 7 7 7 8 6 8 8 6 3 4 4 5 4 5 5 8 10 11 9 9 9 8 9 10 9 8 9 9 9 8 7 6 7 7 8 9 9 8 7 8 3 3 3 2 1 2 2 1 5 11 9 8 8 7 7 5 5 5 5 4 4 4 4 4
4 3 3 4 2 2 4 5 5 7 8 7 7 7 6 6 9 10 7 8 9 8 7 8 6 6 5 6 5 5 4 4 4 4 4 3 1 12 11 9 9 7 7 10 10 9 9 10 9 9 8 7 2 2 3 5 6 6 5 6 4 3 3 3 3 2 3 2 3 7 11 12 6 6 7 5 5 5 4 3 2 4 3 3 3
5 5 4 5 4 3 3 5 6 6 7 8 6 7 8 8 8 7 8 7 7 8 9 8 6 6 6 7 6 5 5 5 5 5 5 6 6 10 11 11 8 7 9 10 10 10 10 10 10 8 7 3 2 3 3 2 2 2 1 3 3 3 4 3 2 2 2 4 2 10 11 12 9 6 6 5 3 3 3 1 1 1 3 5 3
6 6 6 4 4 4 4 5 6 7 7 7 6 6 7 7 8 6 4 6 7 7 9 8 7 6 5 6 6 5 5 5 6 9 7 7 4 4 12 13 11 9 11 8 9 9 11 11 10 8 5 2 4 3 3 3 3 3 3 3 3 4 3 3 3 2 2 3 3 10 11 11 11 7 5 4 3 2 3 3 2 3 2 2 3
6 7 4 5 6 5 5 5 6 7 7 6 7 6 6 7 7 7 7 6 6 5 3 6 6 6 6 5 5 4 5 5 5 6 6 6 7 7 7 7 7 5 8 4 5 6 5 4 5 3 3 3 3 4 4 4 3 3 3 3 3 3 3 3 3 3 2 2 4 8 9 10 10 9 7 5 3 2 2 5 1 1 2 2 3
7 6 8 7 7 7 5 5 5 7 8 6 6 6 5 6 6 6 5 2 5 5 4 2 5 5 5 6 6 6 5 4 5 6 6 6 7 8 8 7 7 4 5 3 3 4 3 2 2 2 2 3 3 3 3 4 4 3 3 3 3 3 3 3 3 3 3 3 3 7 7 9 9 9 8 6 4 1 2 6 4 6 8 6 4
8 8 9 8 8 8 6 4 5 6 8 8 6 6 6 6 5 4 5 6 5 5 1 1 2 4 5 6 6 6 6 5 6 6 6 5 6 7 7 4 1 1 2 4 3 3 3 3 2 2 2 3 4 3 2 2 3 3 3 2 3 2 2 2 2 3 3 3 2 4 7 7 8 8 8 8 8 8 6 6 6 8 8 8 6
8 10 9 8 8 9 7 3 4 5 5 7 7 6 6 5 5 4 4 3 3 3 3 1 2 1 2 4 6 6 6 5 5 6 6 6 6 5 4 2 2 2 3 2 4 2 2 1 3 3 3 3 3 3 2 2 2 2 2 2 2 3 2 2 2 2 2 3 3 3 6 7 8 8 8 8 10 10 11 11 9 8 5 11 8
8 10 9 8 9 8 6 2 3 5 4 6 6 5 5 5 2 4 3 3 3 3 2 2 2 2 1 1 2 4 5 5 5 5 4 6 5 5 5 4 3 2 1 2 3 3 2 0 1 1 1 2 2 3 1 2 2 2 2 2 3 3 2 3 2 2 2 3 3 2 3 5 7 8 8 9 9 10 10 11 11 13 13 9 11
9 8 8 8 8 8 5 3 1 4 4 4 5 4 4 3 4 2 1 1 3 1 2 3 5 5 6 6 4 3 3 3 5 5 5 5 5 4 4 4 3 2 2 3 2 1 1 1 1 0 1 2 2 3 2 2 2 2 3 3 3 3 3 3 3 3 3 2 2 2 3 2 4 6 7 8 9 10 10 11 11 12 13 10 7
9 10 8 8 8 8 6 4 3 1 3 4 4 4 4 4 0 1 9 9 8 8 9 8 8 7 7 6 6 6 4 4 5 6 4 4 3 1 3 3 2 1 1 3 3 2 2 1 1 1 0 2 3 2 2 3 3 3 3 4 4 4 4 3 3 3 3 3 3 3 2 3 2 4 6 7 7 8 9 10 11 12 12 14 14
8 10 8 8 8 8 7 5 5 0 4 5 5 6 10 8 11 9 9 10 10 9 8 7 7 7 8 7 6 5 5 5 4 5 5 5 5 5 4 4 4 3 3 3 3 3 3 3 3 3 2 2 2 3 2 4 5 5 4 4 4 5 5 5 4 4 4 4 3 3 3 2 4 3 4 4 6 7 8 8 9 10 11 12 13
6 8 9 9 9 8 7 8 7 8 8 11 9 9 9 9 9 9 8 9 9 9 9 9 8 8 8 8 8 8 7 7 7 7 7 6 6 5 5 5 6 4 4 5 5 3 3 3 3 2 3 2 2 2 2 2 2 2 3 3 4 5 4 5 5 5 5 4 4 4 4 3 3 4 5 2 3 5 6 7 8 9 9 11 11
7 7 10 10 8 7 6 7 9 10 11 11 11 10 9 9 9 9 9 10 9 10 9 9 10 9 8 10 9 9 8 8 7 6 6 7 7 6 5 5 5 4 2 4 4 3 3 4 3 2 3 3 2 1 1 1 1 1 1 0 2 2 3 4 4 4 5 4 4 4 4 4 4 3 1 3 3 4 4 6 7 7 9 8 10
7 8 9 9 10 9 8 7 9 11 12 12 12 11 10 10 10 10 9 9 9 9 9 9 9 8 8 9 10 9 10 9 7 6 7 7 6 6 7 5 4 2 4 5 4 4 4 4 2 2 1 2 2 1 1 1 1 1 1 1 1 1 2 2 3 3 3 4 4 4 4 4 4 4 3 4 3 4 3 6 7 8 8 9 9
9 8 7 8 9 9 9 10 11 13 12 11 11 12 12 11 10 10 9 11 9 9 9 9 9 8 8 9 11 10 10 10 8 6 8 7 7 6 6 5 4 4 5 4 4 4 3 2 2 2 3 2 2 3 2 3 3 3 2 2 1 1 1 2 2 3 2 2 3 3 3 3 4 3 5 4 4 3 3 7 9 9 9 9 9
8 9 9 8 9 9 9 11 12 12 12 13 14 13 12 12 11 10 11 10 10 9 8 7 8 9 8 8 10 10 10 11 9 9 9 9 8 7 7 7 5 6 5 5 5 4 3 2 2 2 2 3 2 3 2 3 3 4 3 3 2 2 2 2 2 1 1 2 2 2 3 2 3 3 3 4 4 4 2 1 6 7 8 8 10
8 9 9 8 7 7 8 8 8 10 10 11 11 10 11 12 10 10 11 11 11 9 7 8 9 8 8 8 8 9 9 9 8 8 7 7 7 7 7 7 7 6 5 5 5 4 4 4 3 3 4 4 4 5 5 5 4 4 4 4 3 3 3 2 1 1 1 2 2 2 2 2 2 2 2 2 3 3 4 2 4 6 6 4 7
7 8 8 7 7 7 7 8 9 9 10 11 12 12 11 12 10 10 11 11 9 9 8 9 8 8 8 9 9 8 9 9 8 7 7 6 7 7 7 8 6 6 6 6 7 7 7 6 6 4 3 5 4 5 5 6 5 5 4 5 4 4 3 2 1 1 1 2 2 2 1 1 1 1 2 2 2 3 3 4 4 4 3 2 6
6 7 8 8 8 8 7 8 8 7 7 9 8 8 8 8 9 9 11 11 9 9 9 9 9 9 9 9 9 9 9 8 8 7 8 8 8 8 8 8 8 7 8 9 8 7 8 6 6 6 5 4 7 7 7 7 6 6 4 5 5 5 4 1 1 2 2 3 3 2 3 2 2 2 2 3 2 3 3 3 4 3 4 4 4
8 8 8 9 9 7 7 9 6 6 6 6 6 6 8 8 9 10 10 7 8 8 10 9 9 8 9 10 10 9 9 9 9 9 9 10 9 8 8 9 9 9 9 9 8 8 7 6 4 5 7 7 8 8 9 8 5 7 7 6 6 3 2 1 2 3 4 4 2 2 3 3 4 4 4 3 3 3 4 4 4 4 5 5 5
8 8 8 7 7 8 9 7 6 7 8 8 7 9 8 7 8 8 8 7 7 8 9 8 8 8 10 10 10 10 10 10 9 10 10 9 9 9 9 8 8 8 8 8 9 8 9 9 7 5 7 7 7 9 9 8 6 8 9 8 2 4 4 4 4 7 7 4 2 3 5 5 6 5 5 5 4 5 5 5 5 5 5 5 5
6 7 6 6 7 8 7 7 7 8 8 8 9 9 8 9 10 8 9 9 9 9 9 8 8 10 10 10 10 10 10 10 10 9 8 9 9 8 8 7 8 7 7 9 9 10 9 10 10 7 5 6 6 7 9 9 6 8 6 5 5 7 4 3 7 11 6 4 3 4 5 5 6 6 5 6 7 7 6 6 6 6 6 6 5
5 6 6 6 6 7 7 7 8 9 9 9 11 11 12 12 11 10 10 10 9 9 10 9 10 11 11 10 10 10 10 10 11 10 9 10 9 9 8 8 8 8 8 9 10 10 10 10 9 10 7 6 7 7 9 8 7 8 7 5 6 4 4 4 12 7 2 5 7 6 5 7 8 8 7 8 8 7 7 7 7 7 7 6 6
6 5 5 5 4 6 7 8 9 9 9 10 11 11 11 12 10 11 9 10 9 8 9 10 9 10 10 11 10 11 11 11 11 11 10 11 10 9 9 9 9 9 9 9 10 10 9 9 9 9 10 7 7 6 7 8 10 8 6 5 3 4 4 8 12 2 2 8 5 5 7 7 7 8 8 7 7 7 7 7 7 7 7 7 7
5 5 4 4 5 6 7 8 7 7 7 6 5 6 7 8 8 8 8 8 9 9 9 8 8 9 9 8 10 11 11 11 11 11 11 10 11 10 10 10 10 9 9 9 9 9 10 10 9 8 9 9 6 7 7 6 7 9 8 6 3 3 7 8 7 5 8 2 2 4 6 6 7 9 8 7 8 8 7 7 8 8 8 7 7
4 3 3 5 6 6 7 7 6 6 5 5 5 6 7 7 9 10 9 9 10 8 7 7 7 7 7 10 9 10 11 11 11 11 11 11 10 10 10 10 9 9 9 9 9 9 8 8 8 9 8 8 8 7 8 7 5 8 6 5 4 2 3 5 5 8 9 2 2 6 5 4 9 9 6 7 9 8 8 8 8 8 8 7 7
3 3 4 4 6 6 7 7 7 7 6 6 7 6 8 9 10 11 10 10 10 10 9 8 7 7 8 9 8 9 10 10 10 11 11 10 10 10 10 9 9 9 8 9 9 8 7 7 8 8 8 8 8 7 7 7 7 7 7 7 6 4 2 3 3 4 6 10 10 5 1 8 8 6 6 9 8 8 10 8 8 8 7 8 7
3 3 4 5 6 7 8 8 9 8 8 8 9 9 9 9 10 10 11 9 10 8 7 7 7 7 9 8 9 9 9 10 10 10 11 10 9 9 9 9 9 8 8 7 8 8 9 9 9 8 8 7 7 6 6 6 6 6 6 7 6 6 4 3 2 5 6 8 9 9 10 7 5 4 7 6 7 9 9 8 8 8 7 7 7
3 4 4 5 6 7 9 11 10 8 8 10 10 11 11 9 10 10 13 10 8 8 7 7 7 6 8 8 8 8 7 8 9 10 10 10 10 9 9 9 9 8 7 7 7 7 7 7 7 7 7 7 6 6 6 5 4 4 4 4 5 6 4 4 4 6 5 4 8 11 10 12 11 6 5 5 7 8 7 7 8 7 7 7 6
3 4 4 5 6 7 9 12 10 9 9 10 10 11 10 10 10 11 12 12 9 8 8 7 6 7 8 8 8 7 7 7 7 8 9 9 9 9 9 8 8 7 8 8 8 7 6 6 6 6 8 8 6 6 5 6 4 4 5 5 5 5 5 5 6 5 5 7 9 10 10 9 10 11 3 5 7 7 5 6 7 6 7 7 7
Wind_Direction
206 182 171 160 177 195 170 167 165 159 154 152 147 142 137 133 129 125 128 123 124 127 125 125 124 123 120 114 114 114 109 106 104 102 93 97 99 103 105 102 98 93 87 82 80 79 77 77 69 64 59 60 60 59 58 57 57 54 49 50 50 50 51 51 48 44 38 39 47 59 64 65 64 68 69 67 62 52 43 33 17 60 57 72 62
169 180 174 168 175 197 172 168 167 163 157 154 150 145 140 136 132 129 129 127 129 130 130 128 127 122 121 119 117 114 107 101 96 96 105 110 104 97 95 96 97 94 90 86 81 78 76 72 68 64 62 59 57 54 53 55 54 51 48 49 47 47 48 49 46 43 38 37 39 47 48 62 64 64 68 69 65 56 52 44 32 40 62 62 65
157 169 170 168 176 193 177 168 169 165 160 156 151 148 143 138 132 131 127 131 133 135 132 131 132 129 127 120 116 111 110 102 99 95 101 109 108 104 106 106 100 96 96 89 84 83 81 76 73 68 61 58 55 52 52 52 51 46 45 46 44 44 43 46 47 43 39 35 17 72 91 68 60 64 64 65 67 61 55 55 49 47 55 51 56
164 169 169 157 174 194 179 165 171 166 163 156 152 149 144 138 136 134 135 136 141 139 138 136 134 132 129 124 121 120 115 110 105 101 100 109 111 110 110 106 103 101 96 91 90 86 81 75 70 65 59 54 50 47 45 45 44 41 39 39 40 39 42 44 48 44 26 15 352 316 76 80 77 65 69 67 65 60 57 58 59 56 54 49 50
176 165 171 167 180 184 187 160 167 167 162 156 153 150 145 140 139 137 138 144 145 145 142 139 137 136 131 127 125 124 119 114 110 109 104 108 115 117 113 109 107 106 103 98 92 85 81 75 70 65 59 54 48 44 41 38 37 34 31 29 33 37 41 45 49 43 36 8 335 297 70 77 82 71 70 73 70 62 59 59 54 52 53 56 43
176 165 172 169 176 168 186 157 167 168 162 158 152 150 144 141 139 139 141 146 150 149 144 143 140 137 134 129 128 128 125 118 116 112 107 109 118 114 112 104 104 102 104 101 93 87 81 76 72 66 60 53 47 39 33 31 31 33 29 24 21 26 35 47 51 50 17 333 273 55 61 63 73 79 66 77 75 68 63 58 54 49 47 43 51
177 164 173 174 173 168 172 161 165 164 161 158 155 152 142 139 140 140 144 146 156 150 147 146 144 141 138 136 133 133 130 126 121 115 112 114 121 119 113 113 110 101 100 93 94 86 81 78 73 68 63 55 47 39 29 21 19 22 25 24 19 18 22 42 54 25 332 263 44 45 64 62 72 83 78 64 66 66 63 61 55 48 44 38 32
176 167 172 173 183 142 170 159 161 165 165 159 156 149 142 141 142 145 150 151 157 155 151 152 147 149 144 140 138 136 137 133 130 123 121 119 122 120 116 114 109 111 103 103 95 94 88 79 72 67 63 57 47 36 27 20 15 13 16 18 18 17 24 31 41 36 310 318 28 36 52 72 81 80 72 69 66 65 67 65 58 54 47 41 27
175 174 171 173 173 122 161 168 157 164 169 161 154 151 145 142 143 144 154 157 161 159 155 150 148 152 148 149 149 152 153 148 140 131 126 124 126 126 124 120 120 116 103 91 95 91 80 72 67 67 66 60 51 39 27 19 14 13 13 13 17 21 36 42 32 306 235 44 46 59 53 76 80 86 79 76 68 61 46 48 71 59 53 42 37
165 176 174 180 172 121 165 171 168 168 168 162 158 154 150 149 147 149 157 162 166 166 160 151 160 160 162 158 162 169 160 155 145 138 134 133 135 133 129 125 125 117 102 98 91 86 71 65 64 67 65 61 51 43 33 23 16 13 14 16 16 33 44 40 61 296 344 109 83 66 40 340 83 72 78 78 76 68 66 53 51 41 43 50 44
159 173 179 184 172 134 172 168 172 171 170 163 162 160 154 154 156 157 160 162 173 169 167 161 167 168 166 170 178 168 151 152 146 140 140 143 141 141 132 129 120 97 96 100 85 61 68 66 71 68 62 57 51 40 32 26 20 14 17 22 26 46 54 38 256 145 218 116 84 86 98 275 50 67 77 78 78 68 55 52 48 46 42 41 38
166 168 176 186 117 145 170 169 171 164 161 165 162 164 159 156 159 160 165 166 175 173 171 166 169 176 173 182 175 162 152 154 144 144 146 145 147 134 137 132 115 97 85 77 63 36 86 85 79 69 63 58 49 40 30 27 20 18 18 29 40 51 42 341 282 115 168 117 84 53 58 32 57 80 80 75 73 67 55 47 40 36 35 33 33
165 167 174 189 189 154 185 167 157 172 159 167 171 169 164 162 165 163 170 173 175 182 170 176 171 183 183 185 166 164 150 160 153 149 145 137 115 132 138 132 115 102 92 73 57 41 86 78 69 61 58 52 44 37 31 27 20 20 24 35 51 64 56 293 240 175 157 111 101 158 87 58 82 86 79 73 68 64 54 46 41 36 35 31 27
193 218 198 200 204 124 186 175 161 162 171 172 181 177 169 166 169 170 174 180 180 184 177 180 179 192 181 187 187 170 161 161 155 150 141 128 137 144 148 120 116 104 88 74 67 70 79 71 61 54 51 46 42 35 32 26 21 21 26 36 51 78 216 254 39 163 119 139 70 37 317 70 72 52 65 70 64 58 54 48 43 35 32 29 25
12 216 216 212 206 206 157 212 160 156 172 172 182 179 186 175 174 170 178 183 183 173 184 180 178 198 200 177 204 175 176 171 159 153 145 142 147 156 135 122 107 91 83 82 81 77 71 65 59 52 45 41 39 36 31 27 23 22 26 31 36 17 326 10 182 130 117 74 140 171 262 64 40 59 55 59 59 54 50 43 33 26 25 21 24
48 214 218 215 217 206 201 170 240 172 175 167 171 180 184 177 173 177 181 181 177 177 170 175 173 165 157 136 197 169 187 166 167 154 140 145 136 124 123 109 97 92 91 87 84 78 74 67 62 56 44 37 33 35 33 29 27 24 29 32 29 15 359 324 102 82 129 161 132 218 276 73 33 27 339 21 75 57 47 35 17 15 7 18 32
89 140 205 210 214 219 215 208 189 174 146 184 170 173 182 172 182 174 181 181 172 171 167 158 175 152 161 74 100 138 130 165 180 146 142 149 140 117 115 113 95 96 93 92 86 82 76 73 65 57 50 38 34 34 34 28 27 27 31 32 29 24 1 321 97 88 33 54 30 309 346 5 32 14 15 348 80 80 45 2 6 8 7 24 33
67 121 176 200 219 226 230 222 205 205 204 168 185 182 174 181 186 176 168 179 171 167 166 158 167 163 136 87 89 131 152 113 132 151 141 138 124 135 139 105 100 93 99 95 92 86 78 72 68 63 55 46 38 34 34 32 27 27 30 28 29 21 9 317 62 41 63 31 184 117 201 30 5 351 9 33 43 34 346 353 16 9 8 16 29
39 52 142 196 212 220 223 230 228 219 215 214 206 182 185 170 178 188 168 174 174 169 163 168 159 167 132 99 117 106 83 85 115 146 136 145 124 117 127 98 101 104 103 100 97 90 82 79 76 71 64 52 44 40 37 33 30 25 22 21 9 360 304 265 44 38 342 201 353 267 25 352 350 313 2 0 7 336 347 10 24 8 2 14 40
51 31 13 334 245 225 219 222 225 228 221 221 220 209 174 181 170 180 176 181 183 172 169 167 162 153 154 134 145 124 138 139 156 149 147 146 138 135 120 112 106 109 108 107 96 91 97 90 86 81 71 63 54 49 39 35 28 24 17 4 352 294 263 40 44 47 359 38 342 15 9 351 335 308 287 345 336 356 15 15 14 1 11 43 40
38 42 29 3 325 283 241 227 222 222 226 228 231 227 180 180 170 176 184 171 183 182 176 164 161 155 156 156 155 212 185 155 173 197 129 170 131 120 115 107 112 117 126 111 104 108 105 103 96 90 83 76 78 80 60 45 39 27 14 358 310 288 29 4 350 30 18 26 315 37 351 351 329 306 321 325 343 357 11 11 20 7 5 26 47
5 1 17 4 341 287 258 239 233 227 224 224 226 228 213 178 213 205 199 184 185 188 183 198 188 203 175 162 204 203 203 176 173 133 201 96 261 131 127 127 129 133 136 122 118 122 119 112 106 93 91 83 85 43 76 89 65 31 11 322 293 25 20 1 352 12 10 17 345 15 352 353 336 318 319 345 347 21 8 357 29 360 4 337 32
2 351 346 349 329 303 261 238 227 224 225 223 224 224 228 219 226 216 202 193 203 206 218 206 204 213 206 220 224 219 206 199 192 169 158 180 157 149 139 141 138 138 132 134 140 134 127 119 107 103 99 147 76 44 45 21 59 117 304 351 17 13 360 358 343 359 18 25 350 7 358 357 349 331 322 328 344 28 347 343 324 35 22 14 321
346 340 325 329 336 314 295 253 232 224 218 217 219 223 221 227 229 228 211 209 215 225 233 232 220 212 211 229 232 226 221 224 121 149 132 160 152 240 156 154 157 158 138 148 140 131 125 116 115 136 151 50 36 32 30 31 25 18 26 16 15 7 355 351 356 347 345 45 36 5 359 354 353 337 323 327 337 360 326 287 291 47 349 310 300
338 320 325 337 337 328 308 277 233 223 221 216 220 218 216 218 225 235 230 233 229 226 248 262 231 200 208 212 219 216 227 229 190 180 197 186 181 175 168 174 177 186 159 184 174 147 161 138 137 162 72 75 46 37 21 19 23 18 28 25 14 9 356 358 351 346 349 345 51 8 0 353 347 347 336 319 308 314 298 290 338 196 225 261 287
346 343 344 334 340 331 314 288 255 219 213 215 213 213 222 221 221 220 216 230 265 245 243 220 228 230 216 224 216 215 215 215 214 214 207 201 190 190 194 205 217 233 181 192 189 170 129 127 115 98 91 84 80 49 37 21 13 11 19 23 13 10 7 359 353 344 337 335 47 19 2 349 344 341 339 323 306 223 306 295 267 232 219 210 260
355 348 338 337 335 330 324 291 261 217 212 210 208 214 214 211 220 216 234 240 229 233 200 7 304 273 244 228 236 230 221 222 225 221 209 211 212 211 215 205 184 106 192 191 176 138 132 145 146 130 128 111 102 87 65 49 26 10 18 17 13 3 2 4 354 343 334 331 27 45 360 349 344 340 335 327 314 328 322 299 287 295 221 214 203
353 350 346 339 339 339 327 283 234 215 201 205 208 211 219 211 208 196 222 236 265 255 220 108 131 166 291 310 278 252 228 214 228 227 224 221 223 214 203 150 181 190 194 185 153 135 118 130 142 140 140 122 108 106 78 46 40 18 9 13 0 353 355 346 345 335 320 322 318 56 359 350 347 339 335 328 323 325 332 336 327 307 286 201 202
357 350 340 337 347 345 339 304 207 195 192 190 196 199 215 219 203 228 228 185 207 228 238 181 133 104 120 287 30 299 255 233 218 209 210 222 209 201 189 172 160 143 169 169 133 127 164 128 184 142 111 109 109 93 70 53 358 24 352 359 346 346 344 325 327 316 303 300 310 53 11 355 345 342 337 333 327 325 329 328 332 331 323 343 206
353 341 336 339 340 345 14 31 135 177 166 181 170 187 206 200 223 207 155 64 25 45 167 58 41 48 32 21 8 332 321 275 242 224 208 215 209 194 174 159 124 163 185 132 122 141 136 196 52 173 136 90 70 61 7 30 5 1 355 341 338 337 330 324 317 308 307 295 295 302 135 356 343 338 340 336 332 329 327 329 329 332 335 327 317
347 348 342 339 342 352 29 67 112 141 179 148 147 167 186 191 316 58 66 62 51 52 52 56 53 46 46 36 28 31 13 36 36 29 15 16 19 34 50 28 94 122 117 100 103 84 73 341 274 280 84 81 75 65 8 4 356 356 360 336 340 325 325 322 312 305 298 295 300 302 278 178 318 318 331 335 333 329 332 329 327 332 329 333 335
348 344 339 336 344 358 12 59 99 132 130 123 69 69 45 51 61 55 62 63 60 56 57 51 49 48 49 45 40 34 37 54 62 67 65 62 55 43 39 54 47 55 44 59 75 71 63 56 36 9 17 36 90 96 56 9 0 0 346 339 334 328 328 328 315 309 304 305 300 299 301 296 201 243 301 324 331 336 327 330 332 331 329 330 332
343 335 338 352 351 356 9 33 60 78 75 74 76 68 71 66 72 67 66 68 70 69 62 56 53 51 47 46 49 43 39 54 58 65 70 67 66 62 61 60 54 41 42 62 70 84 118 113 76 27 21 8 31 74 119 82 22 356 334 343 328 327 330 321 320 316 316 313 309 309 308 304 297 209 210 260 328 324 331 329 331 330 329 333 335
343 345 352 2 353 17 26 42 57 68 72 75 75 75 74 71 73 70 70 68 63 63 63 66 65 60 54 53 53 52 50 50 60 62 72 72 67 70 69 59 50 50 80 93 85 76 74 70 59 21 21 346 354 15 16 44 120 181 225 252 292 322 320 312 313 315 313 306 313 311 304 305 306 304 298 203 231 316 329 333 331 325 331 332 339
359 358 358 356 6 14 38 56 64 73 73 71 75 76 70 66 61 59 55 61 61 63 57 54 50 44 48 49 49 58 58 56 57 74 70 81 76 68 64 54 54 42 63 58 63 56 56 57 44 23 349 307 284 224 288 255 254 235 219 206 216 258 262 285 289 290 287 300 296 295 302 301 305 317 313 319 174 179 352 339 328 333 326 337 331
3 355 353 4 19 11 39 63 64 65 63 70 72 69 68 65 66 63 62 58 61 57 53 52 48 42 40 44 36 39 47 43 34 56 76 76 77 70 66 66 63 66 62 60 57 64 68 72 63 346 321 300 312 332 341 337 330 322 318 291 279 238 263 254 254 256 272 294 292 298 298 303 309 328 333 309 324 25 26 342 339 333 335 332 327
3 4 7 11 27 22 16 47 60 69 75 76 75 74 80 75 68 64 62 60 60 55 48 49 51 46 39 43 34 36 45 47 45 55 73 75 76 72 66 66 64 63 52 47 52 38 46 67 62 30 346 333 344 344 338 347 339 320 303 292 276 263 265 276 260 284 247 249 267 273 284 300 311 305 298 326 324 324 96 25 329 318 321 320 323
9 13 10 19 24 25 31 28 55 71 76 76 77 79 75 75 68 65 62 60 57 56 50 49 50 47 45 42 35 39 35 37 34 42 58 60 62 64 58 50 50 52 50 51 50 42 41 36 45 30 6 347 13 7 358 350 332 310 308 294 290 283 287 274 298 299 285 304 283 293 308 301 287 300 304 310 318 323 320 271 241 261 256 283 311
19 16 22 24 31 31 36 34 39 63 78 83 85 82 78 77 75 71 67 63 58 56 53 54 48 47 46 40 40 42 36 31 27 31 47 47 53 54 57 53 57 56 50 44 39 32 31 32 27 26 43 40 30 21 0 335 312 296 293 302 298 286 285 286 321 43 18 353 346 330 308 319 327 316 327 313 320 313 307 308 317 319 294 203 296
28 24 34 38 41 43 49 51 36 38 70 80 82 81 79 76 79 74 66 59 56 56 51 51 49 47 41 43 42 47 44 40 38 40 48 51 54 52 56 51 52 56 54 49 42 36 29 30 38 24 21 77 42 18 8 338 313 297 287 299 285 282 274 305 35 64 25 20 15 4 21 1 6 18 0 339 338 322 317 312 311 306 309 286 242
37 36 43 42 44 54 60 53 36 29 51 67 61 71 79 79 68 68 73 66 64 62 60 54 52 47 43 45 45 44 41 41 39 44 53 59 59 56 57 58 59 58 59 57 53 46 36 30 42 52 34 37 38 19 7 331 314 337 330 312 302 288 294 40 82 38 2 12 24 44 21 16 32 23 14 353 334 339 328 334 328 322 320 318 297
35 40 46 45 53 57 61 56 49 56 55 59 69 64 55 63 81 71 76 66 64 62 64 56 55 51 49 47 46 44 44 43 36 41 47 52 57 57 54 53 57 61 63 60 56 52 44 39 26 51 50 44 48 21 15 354 13 346 328 333 329 346 80 79 61 354 342 13 53 39 18 40 33 11 358 345 350 352 356 345 338 326 319 317 314
45 46 46 57 59 63 65 66 62 66 61 65 72 72 72 70 78 82 82 81 67 69 72 69 64 62 55 51 50 48 46 46 42 40 43 43 51 55 53 52 50 52 59 54 48 45 38 38 34 28 34 54 54 38 28 25 3 339 314 316 2 348 132 114 8 345 6 61 16 19 39 39 23 11 357 1 360 351 346 341 334 325 321 317 314
47 49 43 54 60 67 71 78 76 74 77 76 84 82 82 84 82 83 80 80 85 79 75 67 63 62 57 53 50 48 48 49 43 44 46 44 43 47 48 46 46 44 49 51 43 40 35 32 31 30 19 42 37 44 40 37 28 2 10 344 316 321 336 8 346 333 83 16 1 32 40 15 15 13 359 349 344 342 337 337 330 327 323 315 313
48 38 30 46 63 71 73 78 81 84 89 93 96 101 102 97 97 96 94 91 81 74 69 61 58 59 61 49 46 46 47 48 46 44 45 46 43 42 44 45 47 45 49 52 50 43 39 37 31 37 29 22 36 35 44 38 40 30 14 351 349 347 11 327 329 330 39 346 43 35 17 9 13 354 342 342 344 341 338 333 332 327 320 317 313
53 34 29 48 72 82 80 81 85 85 89 91 102 112 112 115 117 107 95 81 72 58 53 56 53 55 58 59 54 49 49 51 48 47 45 45 44 42 41 43 44 44 45 51 51 48 40 37 32 33 33 23 25 35 29 35 48 38 39 45 14 345 330 324 327 318 324 314 49 4 2 18 356 344 338 340 345 341 340 333 329 324 320 316 314
56 43 51 64 73 79 81 84 86 85 76 81 77 91 86 80 81 83 85 86 90 75 70 63 65 64 65 61 59 53 50 53 49 47 45 44 45 41 42 43 42 43 41 46 44 43 40 33 31 37 34 27 28 47 33 15 34 38 27 34 39 23 338 333 348 323 328 345 328 338 343 2 348 337 339 346 340 337 337 333 329 327 324 321 317
70 75 75 76 79 81 85 86 84 81 73 77 73 75 89 87 87 86 84 85 86 89 78 72 67 66 68 63 63 58 53 51 52 48 45 42 41 42 40 42 43 40 40 44 42 36 38 38 36 38 41 39 34 39 37 28 26 19 13 17 14 6 18 22 9 341 313 308 313 321 314 338 337 336 352 340 342 343 334 329 325 325 325 322 319
76 82 88 89 91 90 89 89 86 81 74 75 80 76 83 88 90 95 93 86 88 88 86 80 75 70 71 66 64 64 61 54 50 49 45 43 41 41 40 42 41 38 38 42 41 38 36 34 31 33 34 39 39 33 39 35 30 24 8 16 9 6 2 33 5 345 329 315 306 324 318 320 311 320 340 328 339 336 327 322 320 315 314 318 321
91 99 101 101 97 97 94 89 82 79 79 80 83 82 82 89 92 93 97 97 94 91 86 82 78 73 71 66 63 61 57 56 53 48 47 44 42 41 42 41 41 37 36 37 37 38 35 36 35 36 32 38 38 37 34 22 27 25 16 1 13 2 3 1 360 347 326 301 305 317 320 326 325 325 326 321 328 326 317 319 320 318 317 321 324
105 108 99 97 92 92 93 87 83 85 81 83 85 86 86 86 91 93 94 98 97 96 93 82 77 70 68 63 62 59 55 54 51 48 44 40 43 41 41 41 39 37 34 31 29 26 25 26 28 33 36 31 28 27 33 26 6 19 12 10 10 9 358 347 340 341 326 318 314 309 313 311 308 310 308 320 315 310 296 310 309 314 322 320 320